Location: Zihuatanejo
(17.6330°N, 101.5500°W)
Time: 05:27:46
(UTC-05:00)

Daily predictions for brighter satellites

Satellite Brightness Start Highest point End
(mag) Time Altitude Azimuth Time Altitude Azimuth Time Altitude Azimuth
CZ-3A R/B 4.1 03:13:29 10° WSW 04:39:22 80° SSE 04:45:54 10° ENE
USA 215 4.3 04:45:54 10° ESE 04:51:49 38° NE 04:52:18 37° NE
CZ-4C R/B 3.4 05:03:03 43° N 05:05:26 59° ENE 05:13:15 10° SE
ADEOS II 4.1 05:03:09 10° NE 05:07:19 24° E 05:10:56 12° SSE
Cosmos 2297 Rocket 4.1 05:11:41 21° NNE 05:11:41 21° NNE 05:13:26 10° NNE
Centaur D-1AR AC-41 3.8 05:17:17 69° E 05:17:17 69° E 05:28:17 10° ESE
Cosmos 2219 Rocket 3.5 05:13:35 10° N 05:18:47 36° ENE 05:23:56 10° SE
ADEOS Rocket 3.4 05:18:02 10° NNE 05:24:43 65° E 05:26:47 42° SSE
Cosmos 2298 Rocket 4.2 05:36:43 71° E 05:36:43 71° E 05:41:45 10° NNE
OAO 2 Rocket 4.2 05:39:55 42° N 05:39:55 42° N 05:43:57 10° NE
Cosmos 1607 3.8 05:44:22 59° NW 05:45:38 81° WSW 05:51:55 10° SSE
GPS 2-14 Rocket1 4.3 05:51:21 28° SSE 05:51:21 28° SSE 05:54:32 10° E
Cosmos 2150 Rocket 3.8 05:50:41 66° S 05:51:26 89° ESE 05:56:35 10° NNE
Palapa 6 Rocket 3.5 05:51:40 51° NNE 05:51:40 51° NNE 05:55:36 10° E
GPS 2-18 Rocket1 3.6 05:55:58 59° E 05:55:58 59° E 05:59:13 10° ENE
Cosmos 2333 Rocket 2.5 05:50:04 10° N 05:55:42 64° ENE 06:01:16 10° SSE
Cosmos 1000 Rocket 4.4 05:53:18 10° S 05:59:37 90° W 06:05:58 10° N
PSLV R/B 4.4 05:58:53 10° N 06:01:34 36° NNW 06:01:34 36° NNW
Cosmos 990 Rocket 4.5 05:58:57 10° S 06:04:06 61° ESE 06:09:16 10° NNE
Meteor 2-4 Rocket 4.0 06:08:59 43° W 06:09:23 44° W 06:14:55 10° N
Meteor 1-23 Rocket 4.4 06:09:59 41° WSW 06:11:04 47° W 06:16:27 10° N
Cosmos 2227 4.4 06:07:16 10° S 06:12:58 74° ESE 06:18:43 10° NNE
OAO 1 4.5 06:11:40 34° NW 06:14:07 83° NNE 06:19:36 10° ESE
Cosmos 923 Rocket 3.9 06:09:53 10° NNW 06:15:10 67° WSW 06:20:26 10° S
Cosmos 1666 2.8 06:12:22 10° N 06:16:12 73° E 06:19:59 10° S
GPS 2-17 Rocket1 4.1 06:15:23 26° SSW 06:16:52 34° SSE 06:20:49 10° E
FALCON 9 R/B 3.5 06:14:24 29° WNW 06:17:36 47° N 06:36:34 10° ENE
Hubble Space Telescope 2.1 06:16:50 23° NNW 06:18:32 33° NNE 06:22:17 10° E
Cosmos 2123 Rocket 4.3 06:13:21 10° S 06:19:28 68° E 06:25:35 10° N
Cosmos 967 Rocket 4.5 06:15:51 17° SW 06:20:55 65° WNW 06:27:18 10° NNE
Cosmos 2173 Rocket 4.0 06:16:35 10° N 06:22:41 83° E 06:28:52 10° S
Cosmos 2237 Rocket 2.1 06:17:15 10° NNW 06:22:53 85° WSW 06:28:28 10° SSE
Okean-O 3.0 06:19:39 10° N 06:23:47 40° WNW 06:24:59 33° WSW
Cosmos 1898 Rocket 4.1 06:24:11 31° W 06:25:12 34° WNW 06:30:00 10° N
ISS -2.9 06:24:39 24° NNW 06:26:26 62° NE 06:29:41 10° SE
GPS 2-15 Rocket1 3.2 06:25:44 33° WNW 06:27:45 68° N 06:32:29 10° E
NOSS 3-2 (A) 4.1 06:21:56 10° NNW 06:29:53 88° WSW 06:38:06 10° SSE
Cosmos 2058 Rocket 2.9 06:27:49 10° N 06:32:10 87° W 06:36:32 10° S
Cosmos 1459 Rocket 3.9 06:25:55 10° N 06:32:14 77° W 06:38:29 10° S
ATLAS 5 CENTAUR R/B 3.0 06:26:35 10° NNW 06:32:54 63° ENE 06:39:27 10° SE
ASTRO F (AKARI) 4.3 06:31:07 10° S 06:34:11 52° W 06:37:14 10° NNW
USA 238 DEB 4.5 06:30:57 19° WNW 06:34:32 29° WSW 06:40:26 10° SSW
USA 215 3.8 06:28:41 10° S 06:34:37 37° SW 06:39:43 14° WNW
USA 238 4.4 06:30:54 19° WNW 06:34:38 30° WSW 06:40:33 10° SSW
Radarsat Rocket 4.1 06:28:35 10° NNE 06:34:53 79° ESE 06:40:43 10° S
Cosmos 1980 3.8 06:30:50 10° NNW 06:36:21 54° WSW 06:41:51 10° S
SL-8 R/B 4.4 06:35:58 25° W 06:37:43 32° SW 06:41:58 10° SSE
Cosmos 1937 Rocket 4.1 06:36:56 14° SW 06:40:46 34° WNW 06:45:29 10° N
MOS 1 Rocket 3.6 06:36:55 10° N 06:41:43 51° WNW 06:46:48 10° SSW
SL-16 R/B 3.1 06:36:21 10° N 06:41:52 52° ENE 06:47:21 10° SSE
COBE Rocket 4.0 06:39:06 10° N 06:43:36 47° WNW 06:48:02 10° SSW
USA 116 4.4 06:38:29 10° S 06:43:50 70° W 06:48:54 10° NNW
Meteor 2-9 Rocket 4.3 06:39:37 10° NNW 06:45:13 58° W 06:50:55 10° S
ADEOS II 3.1 06:42:39 10° NNW 06:46:49 24° WNW 06:50:59 10° SW
NOSS 0 Rocket 4.5 06:44:42 10° NW 06:50:14 34° WSW 06:55:46 10° SSW
CZ-4B R/B 4.5 06:49:50 10° NNW 06:53:10 30° WNW 06:56:26 10° SW
NOAA 6 4.1 06:48:10 10° N 06:53:14 55° WNW 06:58:16 10° SSW
CZ-4C R/B 4.1 06:48:29 11° WNW 06:53:44 21° WSW 06:59:19 10° SSW
Cosmos 1626 Rocket 3.9 06:50:10 10° SSW 06:54:19 41° W 06:58:27 10° NNW
Cosmos 2219 Rocket 3.5 06:58:43 10° WNW 07:02:20 17° WSW 07:05:56 10° SW
NOSS 3-2 (C) 4.2 06:59:22 10° NW 07:07:12 61° WSW 07:15:14 10° S
USA 129 2.6 07:06:21 10° SSW 07:08:14 28° W 07:10:05 10° NW
CSL-04 Debris 4.4 07:03:43 10° NNE 07:09:08 76° ESE 07:14:31 10° S
H-2A ROCKET BODY 4.5 07:07:45 10° SSW 07:13:48 47° SE 07:45:34 10° ENE
Cosmos 292 Rocket 4.2 07:09:26 10° NNW 07:13:57 40° W 07:18:27 10° S
USA 234 3.4 07:12:02 10° NE 07:18:36 90° SE 07:25:08 10° SW
